Eveleth, MN

4:31 AM CST on November 18, 2017 (GMT -0600)
Eveleth-Virginia Municipal

Weather History for KEVM - November, 2011

Change the Weather History Date:

Monday, November 28, 2011

  Actual Average Record
Temperature  
Mean Temperature 32 °F -  
Max Temperature 37 °F 29 °F 46 °F (1998)
Min Temperature 26 °F 14 °F -5 °F (1989)
Degree Days  
Heating Degree Days 34    
Moisture  
Dew Point 25 °F    
Average Humidity 79    
Maximum Humidity 87    
Minimum Humidity 65    
Precipitation  
Precipitation 0.00 in - - ()
Sea Level Pressure  
Sea Level Pressure 30.00 in    
Wind  
Wind Speed 9 mph (SW)    
Max Wind Speed 14 mph    
Max Gust Speed 24 mph    
Visibility 10 miles    
Events      
Averages and records for this station are not official NWS values.
T = Trace of Precipitation, MM = Missing Value Source: NWS Daily Summary

Daily Weather History Graph

Daily Weather History Graph

Search for Another Location

Airport or City:

Trip Planner

Search our weather history database for the weather conditions in past years. The results will help you decide how hot, cold, wet, or windy it might be!

Date:

Astronomy

Nov. 28, 2011 Rise Set
Actual Time 7:32 AM CST 4:23 PM CST
Civil Twilight 6:57 AM CST 4:57 PM CST
Nautical Twilight 6:19 AM CST 5:35 PM CST
Astronomical Twilight 5:42 AM CST 6:12 PM CST
Moon 10:40 AM CST (11/28) 8:13 PM CST (11/28)
Length of Visible Light 9h 59m
Length of Day
8h 50m
Waxing Crescent, 16% of the Moon is Illuminated
Nov 28
Waxing Crescent
Dec 2
First Quarter
Dec 10
Full
Dec 17
Last Quarter
Dec 24
New

Hourly Weather History & Observations

Time (CST) Temp. Windchill Dew Point Humidity Pressure Visibility Wind Dir Wind Speed Gust Speed Precip Events Conditions
12:13 AM 26.6 °F 18.2 °F 23.0 °F 86% 30.07 in 10.0 mi SSW 8.1 mph - N/A   Overcast
12:32 AM 26.6 °F 21.2 °F 23.0 °F 86% 30.08 in 10.0 mi SSW 4.6 mph - N/A   Overcast
12:53 AM 26.6 °F 19.1 °F 23.0 °F 86% 30.06 in 10.0 mi South 6.9 mph - N/A   Overcast
1:13 AM 26.6 °F 16.8 °F 23.0 °F 86% 30.05 in 10.0 mi SW 10.4 mph - N/A   Overcast
1:32 AM 26.6 °F 20.0 °F 23.0 °F 86% 30.05 in 10.0 mi South 5.8 mph - N/A   Overcast
1:53 AM 26.6 °F 18.2 °F 23.0 °F 86% 30.04 in 10.0 mi SSW 8.1 mph - N/A   Overcast
2:13 AM 26.6 °F 18.2 °F 23.0 °F 86% 30.04 in 10.0 mi SSW 8.1 mph - N/A   Overcast
2:32 AM 26.6 °F 17.5 °F 23.0 °F 86% 30.04 in 10.0 mi SSW 9.2 mph - N/A   Overcast
2:53 AM 26.6 °F 17.5 °F 23.0 °F 86% 30.03 in 10.0 mi SSW 9.2 mph - N/A   Overcast
3:13 AM 26.6 °F 16.2 °F 23.0 °F 86% 30.04 in 10.0 mi SW 11.5 mph - N/A   Overcast
3:33 AM 26.6 °F 16.2 °F 23.0 °F 86% 30.04 in 10.0 mi SSW 11.5 mph - N/A   Overcast
3:53 AM 26.6 °F 17.5 °F 23.0 °F 86% 30.02 in 10.0 mi SSW 9.2 mph - N/A   Overcast
4:13 AM 26.6 °F 17.5 °F 23.0 °F 86% 30.02 in 10.0 mi SSW 9.2 mph - N/A   Overcast
4:32 AM 26.6 °F 17.5 °F 23.0 °F 86% 30.00 in 10.0 mi SSW 9.2 mph - N/A   Overcast
4:53 AM 26.6 °F 16.8 °F 23.0 °F 86% 30.00 in 10.0 mi South 10.4 mph - N/A   Overcast
5:13 AM 26.6 °F 15.7 °F 23.0 °F 86% 29.99 in 10.0 mi South 12.7 mph 18.4 mph N/A   Overcast
5:32 AM 26.6 °F 17.5 °F 23.0 °F 86% 29.99 in 10.0 mi SSW 9.2 mph 17.3 mph N/A   Overcast
5:53 AM 26.6 °F 16.2 °F 23.0 °F 86% 29.98 in 10.0 mi SSW 11.5 mph - N/A   Overcast
6:32 AM 26.6 °F 16.2 °F 23.0 °F 86% 29.98 in 10.0 mi SSW 11.5 mph - N/A   Overcast
6:53 AM 26.6 °F 18.2 °F 23.0 °F 86% 29.97 in 10.0 mi South 8.1 mph 16.1 mph N/A   Overcast
7:13 AM 26.6 °F 17.5 °F 23.0 °F 86% 29.97 in 10.0 mi South 9.2 mph - N/A   Overcast
7:53 AM 26.6 °F 16.8 °F 23.0 °F 86% 29.96 in 10.0 mi SSW 10.4 mph - N/A   Mostly Cloudy
8:12 AM 26.6 °F 15.7 °F 23.0 °F 86% 29.95 in 10.0 mi SSW 12.7 mph 17.3 mph N/A   Mostly Cloudy
8:33 AM 28.4 °F 18.5 °F 23.0 °F 80% 29.93 in 10.0 mi South 11.5 mph - N/A   Mostly Cloudy
8:53 AM 28.4 °F 19.1 °F 23.0 °F 80% 29.93 in 10.0 mi SSW 10.4 mph 17.3 mph N/A   Mostly Cloudy
9:13 AM 28.4 °F 18.0 °F 24.8 °F 86% 29.92 in 10.0 mi SSW 12.7 mph 18.4 mph N/A   Scattered Clouds
9:33 AM 28.4 °F 19.7 °F 23.0 °F 80% 29.92 in 10.0 mi SSW 9.2 mph 16.1 mph N/A   Clear
9:52 AM 30.2 °F 21.3 °F 24.8 °F 80% 29.91 in 10.0 mi SSW 10.4 mph 17.3 mph N/A   Clear
10:12 AM 32.0 °F 24.2 °F 26.6 °F 80% 29.92 in 10.0 mi SSW 9.2 mph 17.3 mph N/A   Clear
10:33 AM 32.0 °F 23.6 °F 24.8 °F 75% 29.92 in 10.0 mi SSW 10.4 mph 16.1 mph N/A   Clear
10:53 AM 32.0 °F 23.0 °F 24.8 °F 75% 29.90 in 10.0 mi South 11.5 mph - N/A   Clear
11:12 AM 32.0 °F 24.2 °F 26.6 °F 80% 29.90 in 10.0 mi SSW 9.2 mph 17.3 mph N/A   Clear
11:33 AM 32.0 °F 23.0 °F 26.6 °F 80% 29.90 in 10.0 mi SSW 11.5 mph 18.4 mph N/A   Clear
11:52 AM 32.0 °F 23.6 °F 24.8 °F 75% 29.90 in 10.0 mi SSW 10.4 mph 17.3 mph N/A   Clear
12:12 PM 33.8 °F 24.3 °F 24.8 °F 70% 29.90 in 10.0 mi SSW 13.8 mph 20.7 mph N/A   Clear
12:52 PM 35.6 °F 27.1 °F 24.8 °F 65% 29.92 in 10.0 mi SW 12.7 mph 17.3 mph N/A   Clear
1:12 PM 37.4 °F 30.3 °F 26.6 °F 65% 29.93 in 10.0 mi WSW 10.4 mph - N/A   Clear
1:33 PM 37.4 °F 30.3 °F 26.6 °F 65% 29.95 in 10.0 mi WSW 10.4 mph - N/A   Clear
1:52 PM 37.4 °F 29.8 °F 26.6 °F 65% 29.95 in 10.0 mi WSW 11.5 mph - N/A   Clear
2:13 PM 37.4 °F 29.8 °F 26.6 °F 65% 29.95 in 10.0 mi WSW 11.5 mph - N/A   Clear
2:53 PM 37.4 °F 32.8 °F 26.6 °F 65% 29.97 in 10.0 mi WSW 5.8 mph - N/A   Clear
3:13 PM 37.4 °F 32.1 °F 26.6 °F 65% 29.98 in 10.0 mi WSW 6.9 mph - N/A   Clear
3:32 PM 37.4 °F 31.4 °F 26.6 °F 65% 30.00 in 10.0 mi West 8.1 mph - N/A   Clear
3:53 PM 37.4 °F 33.8 °F 28.4 °F 70% 30.00 in 10.0 mi West 4.6 mph - N/A   Clear
4:12 PM 37.4 °F 33.8 °F 28.4 °F 70% 30.02 in 10.0 mi West 4.6 mph - N/A   Mostly Cloudy
4:33 PM 37.4 °F 32.1 °F 28.4 °F 70% 30.03 in 10.0 mi WNW 6.9 mph - N/A   Mostly Cloudy
4:53 PM 35.6 °F 29.9 °F 28.4 °F 75% 30.04 in 10.0 mi WNW 6.9 mph - N/A   Scattered Clouds
5:33 PM 37.4 °F 30.8 °F 30.2 °F 75% 30.07 in 10.0 mi WNW 9.2 mph - N/A   Clear
5:53 PM 35.6 °F 29.9 °F 28.4 °F 75% 30.07 in 10.0 mi NW 6.9 mph - N/A   Clear
6:13 PM 35.6 °F 28.0 °F 30.2 °F 81% 30.08 in 10.0 mi NW 10.4 mph 18.4 mph N/A   Clear
6:33 PM 37.4 °F 28.9 °F 32.0 °F 81% 30.09 in 10.0 mi NW 13.8 mph 19.6 mph N/A   Clear
6:53 PM 35.6 °F 26.6 °F 32.0 °F 87% 30.10 in 10.0 mi NW 13.8 mph 24.2 mph N/A   Clear
7:12 PM 35.6 °F 26.6 °F 30.2 °F 81% 30.11 in 10.0 mi NW 13.8 mph 20.7 mph N/A   Clear
7:32 PM 35.6 °F 27.5 °F 30.2 °F 81% 30.12 in 10.0 mi NW 11.5 mph 17.3 mph N/A   Clear
8:13 PM 35.6 °F 27.1 °F 28.4 °F 75% 30.13 in 10.0 mi NW 12.7 mph 20.7 mph N/A   Clear
8:33 PM 35.6 °F 27.5 °F 26.6 °F 70% 30.13 in 10.0 mi NNW 11.5 mph - N/A   Clear
8:53 PM 33.8 °F 24.8 °F 24.8 °F 70% 30.15 in 10.0 mi NNW 12.7 mph 21.9 mph N/A   Clear
9:12 PM 33.8 °F 24.8 °F 24.8 °F 70% 30.16 in 10.0 mi NNW 12.7 mph 19.6 mph N/A   Clear
9:53 PM 32.0 °F 23.0 °F 21.2 °F 64% 30.17 in 10.0 mi NNW 11.5 mph 23.0 mph N/A   Clear
10:13 PM 32.0 °F 22.1 °F 19.4 °F 60% 30.18 in 10.0 mi NNW 13.8 mph 20.7 mph N/A   Clear
10:32 PM 32.0 °F 22.1 °F 21.2 °F 64% 30.19 in 10.0 mi NNW 13.8 mph 20.7 mph N/A   Clear
11:12 PM 32.0 °F 25.6 °F 21.2 °F 64% 30.20 in 10.0 mi NNW 6.9 mph - N/A   Clear
11:32 PM 32.0 °F 24.8 °F 21.2 °F 64% 30.21 in 10.0 mi NNW 8.1 mph - N/A   Clear
11:53 PM 32.0 °F 24.2 °F 21.2 °F 64% 30.22 in 10.0 mi NW 9.2 mph 16.1 mph N/A   Clear